THOR ABLESTAR DEB, 147

Orbit data source: Space-Track

THOR ABLESTAR DEB, 147 is space debris in LEO originally from a launch on Thu, 29 Jun 1961 UTC launched from the Air Force Eastern Test Range (AFETR). Debris objects in space refer to the collection of defunct objects orbiting the Earth. Examples of debris include non-operational satellites, rocket bodies, and fragments generated from explosions, collisions, or faulty payload assembly.

Loading next visibility...
Identifier
147, 1961-015AH
Orbit
LEO
Last TLE update
13 hours ago
Origin
Manufacturer
Unknown
Mission
Spacecraft
Bus & Motor
Unknown
Mass
Unknown
Launch date (UTC)
1961-06-29 (64 years ago)
Launch vehicle
Unknown
Launch site
Air Force Eastern Test Range (AFETR)
Object type
Payload
Rocket body
Debris
Shape & HBR
Unknown
Radar Cross Section
Medium (>0.1 m² and <1 m²)

Expand to show TLE details & history

TLE from 13 hours ago
0 THOR ABLESTAR DEB
1 00147U 61015AH  25128.71675123  .00001082  00000-0  50613-3 0  9994
2 00147  66.6176 331.4708 0053849 352.3059   7.7202 14.23349833276887
Epoch: 2025-05-08T17:12Z
Definitive object data (Epoch: 2025-05-08T17:12:07.306Z)
Latitude
-0.00007°
Longitude
-153.34292°
Altitude
777.762 km
Speed
7.485 km/s
True Right ascension
22h 05m 52s
True Declination
0° 00' 00"
Sunlit
Object was in daylight at TLE epoch
Visualization TLE readout
Latitude
-66.50767°
Longitude
123.55449°
Altitude
830.533 km
Speed
7.441 km/s
Apparent Right ascension
00h 19m 03s
Apparent Declination
-74° 51' 51"
Sunlit
Object is in full shadow
Visualization observer readout
Local Sidereal Time
14:26:12
Azimuth
167.046° S
Elevation
-52.151°
Doppler factor
1
Orbital elements
Apogee altitude
851.156 km
Perigee altitude
773.715 km
Semi-major axis
7,190.573 km
Eccentricity
0.0053849
Inclination
66.6176°
RAAN
331.4708°
Arg. of periapsis
352.3059°
True anomaly
7.80365°
Mean anomaly
7.7202°
Eccentric anomaly
7.76187°
Mean motion
3.55957 °/min
BSTAR
0.00050613
Orbital period
101.14 mins
Loading maneuver chart data...
Loading SW <> Apogee altitude chart data...

THOR ABLESTAR DEB Visibility forecast

Observer location: undefined°, undefined°

Span
Click to sort rows by Start time (UTC) header in descending order
Start Az.
Max El. time (UTC)
Max El. Az.
Max El.
End time (UTC)
End Az.
9 mins2025-05-09 15:16:23.527Z216.147° SW2025-05-09 15:20:23.527Z336.094° NNW43.748°2025-05-09 15:25:23.527Z26.36° NE
4 mins2025-05-09 17:03:23.527Z301.471° NW2025-05-09 17:05:23.527Z325.251° NNW13.274°2025-05-09 17:07:23.527Z347.58° N
5 mins2025-05-09 22:24:23.527Z16.603° NNE2025-05-09 22:26:23.527Z40.121° NE15.116°2025-05-09 22:29:23.527Z73.909° E
9 mins2025-05-10 00:07:23.527Z333.406° NNW2025-05-10 00:11:23.527Z78.037° E44.787°2025-05-10 00:16:23.527Z149.083° SSE
|